Theta_e
300 299 297 297 297 297 297 296 296 296 295 295 295 295 294 294 293 293 294 295 296 297 297 296 294 294 294 294 295 294 294 294 293 293 295 296 295 295 295 295 298 299 301
300 300 298 297 297 297 297 296 296 296 295 295 295 294 294 293 293 293 296 296 294 296 297 296 294 294 293 294 296 294 294 293 293 293 294 294 294 294 294 294 295 299 299
300 300 299 297 297 297 297 297 296 296 295 295 295 294 294 293 293 293 294 293 292 295 296 295 294 293 294 295 297 294 294 293 293 293 293 292 292 292 293 294 293 295 296
299 300 300 298 298 297 297 297 296 296 295 295 295 294 294 294 293 293 293 293 292 295 295 294 293 292 294 295 296 295 295 293 293 293 292 292 292 291 291 292 292 293 295
299 300 300 299 297 297 297 297 297 296 295 295 295 294 294 294 293 293 293 293 293 295 295 295 293 291 295 295 296 295 295 294 293 293 292 292 292 291 291 290 291 291 291
300 300 300 300 298 297 297 297 297 297 296 295 295 295 294 294 294 293 293 293 293 294 295 295 294 291 291 293 295 295 294 294 294 293 292 291 292 291 290 290 291 291 291
301 300 300 300 299 298 297 297 297 297 297 295 295 294 294 294 294 293 293 293 293 295 296 295 294 291 291 293 293 293 293 293 293 293 293 292 291 291 291 291 290 290 290
301 300 299 300 300 299 298 297 297 297 297 296 295 294 294 294 294 294 293 293 293 295 295 295 294 292 291 293 292 291 292 292 293 292 293 292 292 292 291 290 291 290 290
301 301 300 299 300 299 298 298 297 297 298 297 296 295 294 294 294 294 293 293 293 294 295 295 294 293 291 290 290 290 291 291 291 293 293 292 292 293 293 292 291 291 290
301 301 300 299 299 300 299 298 298 297 298 297 296 295 295 295 295 294 294 294 293 293 294 293 294 293 292 290 290 290 290 290 291 293 293 293 293 293 292 292 293 293 292
301 300 300 299 299 299 299 299 298 297 297 297 296 296 295 295 295 295 295 295 294 294 294 293 293 293 292 290 290 290 289 291 291 292 292 292 291 291 292 292 292 291 290
301 300 300 300 299 299 299 299 298 297 297 297 296 296 296 296 296 296 296 296 295 296 295 293 293 292 291 290 291 291 290 289 290 291 291 291 290 290 291 291 291 290 291
301 300 299 299 299 298 298 299 299 298 298 297 297 297 297 296 296 296 296 296 296 294 294 293 292 291 291 290 290 292 291 289 289 289 290 290 290 290 290 290 290 290 290
300 300 300 299 299 298 298 298 298 298 298 298 298 297 297 297 296 296 296 296 296 294 292 293 291 290 291 291 291 292 291 290 289 289 289 289 289 289 290 289 290 290 290
300 300 299 299 298 299 298 298 298 298 298 298 298 297 297 297 296 295 296 296 295 292 291 290 290 291 291 291 291 291 293 292 290 289 289 289 289 289 289 289 289 289 289
300 300 299 299 298 298 298 298 297 297 297 297 297 297 297 296 296 295 294 294 292 291 290 290 291 291 291 291 291 290 291 292 293 290 289 289 289 289 289 289 289 289 288
301 300 299 299 298 298 298 298 297 297 296 296 297 296 296 296 295 295 294 293 292 291 290 290 290 290 290 290 290 290 290 290 293 292 290 289 289 289 289 289 288 288 288
301 300 299 299 298 298 298 298 298 297 296 296 296 296 295 295 294 294 293 292 291 291 291 290 290 290 290 290 290 290 290 290 292 293 291 289 289 289 289 288 288 288 288
302 300 300 299 298 298 297 297 297 297 296 296 295 295 295 295 294 293 292 292 291 291 291 290 289 289 289 289 289 290 290 290 291 292 292 290 289 289 288 288 288 288 288
303 301 299 299 298 297 297 296 296 296 296 296 296 295 295 294 294 294 292 291 291 291 291 290 289 289 289 289 289 289 289 290 290 292 293 291 289 289 288 287 287 288 288
303 302 300 299 298 297 297 296 296 296 296 296 296 295 294 294 294 293 293 292 292 292 291 289 289 289 289 289 289 289 289 289 290 291 292 291 289 288 288 287 287 287 287
301 301 301 300 298 297 296 296 296 296 296 296 296 295 294 294 294 293 293 292 293 293 291 289 289 288 288 289 289 289 289 289 290 292 291 290 288 288 287 287 287 287 287
303 301 300 300 299 297 296 296 296 295 295 296 296 295 295 295 294 293 293 292 292 292 291 290 289 289 288 289 289 289 289 289 291 292 290 289 288 287 287 287 287 287 287
303 301 300 299 299 298 297 296 296 295 295 295 295 295 296 295 294 293 292 291 292 293 290 289 289 289 289 289 289 289 289 291 292 291 290 289 288 287 287 287 287 287 287
300 301 301 299 298 298 297 296 296 295 295 295 295 295 296 295 294 293 292 292 293 293 290 289 289 289 289 289 289 289 289 290 290 289 288 288 287 287 287 287 287 287 287
298 299 299 299 298 297 297 296 296 295 295 295 295 295 295 295 294 293 292 293 294 291 289 289 289 289 289 289 289 289 289 290 289 289 288 288 288 287 287 287 287 287 287
Wind_Speed
21 18 16 15 14 13 12 12 12 11 11 12 13 13 13 14 15 14 10 11 14 15 15 21 18 14 13 18 17 20 20 20 21 23 19 16 15 16 18 19 15 13 11
21 20 18 17 16 15 13 12 13 12 12 13 13 13 13 13 14 13 10 11 15 16 15 20 17 14 13 15 17 19 22 17 18 20 18 18 19 18 18 18 14 7 8
23 22 20 19 18 16 15 14 13 12 12 13 14 13 13 13 14 13 14 15 15 14 13 17 16 15 13 12 17 19 20 17 15 18 19 18 21 19 19 14 11 9 6
26 25 22 20 18 17 16 15 14 13 13 13 13 13 13 13 13 14 15 15 14 10 12 14 16 14 9 13 17 18 19 19 17 18 17 17 16 17 15 13 9 8 5
28 27 24 20 20 19 18 17 16 14 13 13 14 13 13 13 13 15 17 16 15 10 10 14 16 12 8 9 14 15 17 18 18 18 18 17 15 17 20 17 13 10 8
29 28 24 23 22 21 19 18 18 16 14 15 14 14 14 13 13 13 15 17 14 13 11 14 16 12 10 8 10 11 12 13 16 18 19 18 14 14 16 15 15 17 9
30 28 26 25 24 22 21 20 19 18 16 15 15 15 14 14 14 13 14 16 14 12 11 14 17 13 9 9 12 11 10 9 10 13 16 14 15 14 13 14 12 13 13
31 30 28 27 26 23 22 21 20 19 18 17 16 15 15 14 14 14 14 15 12 10 11 12 16 12 9 10 12 11 8 9 10 11 13 13 13 14 12 9 11 11 8
33 32 30 29 27 25 24 22 20 20 19 18 17 16 16 15 14 14 14 14 12 10 10 12 13 13 10 10 11 10 8 8 7 8 8 12 15 13 14 10 8 10 8
35 32 30 29 28 27 24 22 20 21 20 19 18 16 16 15 13 12 12 14 13 12 9 11 10 13 12 11 10 9 9 7 4 4 6 8 11 13 15 16 14 11 10
31 31 30 29 29 28 25 24 23 22 21 20 19 17 16 14 12 11 10 13 12 10 8 9 10 11 12 10 7 8 8 8 5 4 5 6 9 10 11 13 16 19 14
29 30 30 30 29 29 28 26 25 24 23 21 20 18 16 14 12 11 11 11 9 10 10 9 7 10 9 7 6 5 6 7 6 5 5 6 7 7 7 10 11 13 12
28 30 31 30 29 30 29 28 27 25 25 22 21 19 16 14 12 11 11 10 11 12 12 10 9 9 7 5 4 3 5 5 5 5 4 5 6 6 5 7 8 10 9
28 30 30 31 30 30 30 30 29 28 26 24 22 20 16 15 13 13 14 14 17 17 14 14 13 10 7 6 4 2 3 5 6 6 5 5 5 5 5 6 5 6 6
29 29 31 32 31 30 31 31 30 27 25 23 21 20 18 18 16 16 16 16 17 14 12 11 9 8 7 7 6 5 3 3 5 4 5 5 6 6 6 5 6 7 8
31 30 32 33 32 32 31 30 30 28 25 25 22 21 20 19 19 20 18 15 14 12 10 9 8 8 8 8 8 7 5 4 3 4 5 5 6 6 6 6 7 7 8
32 31 32 33 34 33 32 31 30 27 25 25 23 22 21 21 22 20 18 15 13 12 10 10 9 8 9 9 8 7 6 4 3 3 3 4 5 6 6 6 7 7 7
33 33 33 33 33 33 32 31 29 27 27 26 23 21 19 19 19 18 17 15 13 12 10 10 10 10 9 9 9 8 6 6 4 3 3 3 3 4 5 6 7 7 8
33 35 35 34 33 33 31 31 29 28 27 26 23 23 22 20 18 17 17 16 14 13 12 11 11 10 9 9 9 8 7 7 6 5 4 4 3 3 4 5 6 7 8
31 33 36 36 33 34 34 33 31 30 28 26 26 24 21 21 21 18 17 16 16 14 12 12 11 11 10 10 10 9 9 9 7 6 6 5 5 5 4 5 5 7 8
31 30 33 38 37 35 35 34 32 30 29 28 26 22 22 23 20 18 17 16 15 14 13 13 13 13 12 11 11 10 10 10 8 7 7 7 6 5 4 5 5 6 8
31 32 31 37 39 38 37 35 33 31 30 28 26 24 24 25 22 21 19 17 15 14 14 15 15 15 14 13 12 11 11 11 10 7 8 7 5 5 4 3 4 5 6
30 32 35 34 38 38 38 36 34 32 31 29 26 26 27 26 23 22 20 18 17 16 16 16 17 17 15 15 13 11 10 10 8 8 8 6 5 3 4 3 4 5 6
28 33 36 38 37 38 40 38 34 32 31 29 28 28 27 25 23 23 21 21 19 18 18 18 18 17 15 13 11 10 10 9 7 7 6 5 4 4 4 3 4 5 6
29 32 35 39 40 38 39 39 36 34 31 30 29 29 26 25 25 24 23 22 21 20 18 19 18 17 15 13 12 11 11 10 8 7 6 5 5 4 5 4 4 4 4
27 31 34 37 40 39 38 38 37 35 33 30 30 29 27 26 25 24 23 22 22 21 20 19 18 17 15 14 13 12 12 11 9 8 7 6 6 5 5 4 3 3 3
Wind_Direction
240 245 247 247 251 259 267 274 281 288 299 306 307 313 321 325 328 325 320 331 335 330 331 337 332 329 338 331 349 350 343 339 334 331 341 6 0 1 356 354 9 23 35
238 241 245 245 247 253 261 269 274 285 294 299 304 309 316 323 324 323 313 323 326 319 326 332 330 335 336 338 348 350 342 344 338 333 334 348 342 342 345 345 345 343 3
236 240 242 243 245 251 257 263 270 280 287 292 298 303 311 318 321 318 319 329 324 309 322 331 332 328 335 338 342 345 345 346 341 331 334 340 337 330 328 335 346 339 353
237 238 240 242 245 249 254 260 268 274 282 287 293 299 306 314 318 316 317 321 326 310 321 331 334 326 341 332 336 336 337 345 347 348 342 347 347 355 354 6 11 5 11
239 240 242 243 243 246 250 258 266 271 277 282 287 292 299 308 313 313 314 322 331 323 322 332 331 326 319 323 331 334 337 339 345 345 346 340 350 352 359 2 10 12 41
240 242 243 242 245 248 252 256 263 269 275 278 284 288 295 304 308 308 309 316 327 322 327 330 330 331 316 327 334 329 328 339 340 336 338 334 337 333 352 352 2 17 18
243 243 241 242 244 247 251 253 260 268 272 278 282 287 294 299 303 304 304 308 318 308 315 328 328 333 335 335 334 326 314 327 332 322 354 359 1 355 349 354 7 6 1
244 243 242 242 244 245 248 254 258 264 270 276 282 285 290 296 298 300 298 301 309 294 302 314 323 332 339 335 334 335 329 346 347 351 356 5 359 354 353 5 7 7 12
245 245 244 243 244 246 248 253 257 261 268 276 281 285 289 294 295 294 292 297 303 292 299 302 314 328 332 336 338 343 338 336 337 356 16 15 17 17 16 25 17 28 45
247 248 247 245 245 247 251 253 258 261 268 272 278 283 285 291 292 294 289 294 300 303 299 286 292 314 322 324 329 338 343 345 3 3 9 14 6 6 9 16 11 15 20
253 252 250 246 246 250 252 253 255 260 264 269 275 280 282 286 287 291 295 293 297 307 311 293 287 299 305 309 314 332 342 342 336 332 345 360 1 1 4 9 15 20 23
256 254 250 248 246 247 248 251 253 256 262 267 271 276 279 280 285 288 294 288 295 296 307 315 296 301 293 290 286 324 337 338 330 330 337 340 354 5 7 6 8 11 16
256 253 251 249 247 247 247 248 250 254 259 264 268 273 276 277 281 279 282 267 271 280 283 300 296 300 280 271 267 321 328 338 350 344 356 3 4 1 359 1 11 9 12
257 255 252 249 247 247 248 248 249 250 254 260 263 268 273 271 271 274 268 274 279 294 282 281 282 272 250 243 249 293 329 346 351 354 354 356 360 356 1 359 9 3 8
259 257 253 249 248 249 250 252 253 255 256 259 262 265 265 267 271 272 270 271 279 282 274 266 251 235 239 238 251 257 287 333 350 354 349 352 355 357 0 7 357 1 358
258 256 253 249 248 249 250 253 252 253 251 253 255 256 259 262 266 269 273 276 279 276 270 248 231 231 235 243 249 242 254 287 300 342 348 347 351 355 356 356 357 358 359
258 257 254 251 249 248 249 250 251 252 251 251 250 252 255 257 258 260 264 267 269 267 256 235 232 233 238 243 246 241 241 258 287 295 330 339 347 347 347 346 355 1 6
260 257 256 253 252 250 250 251 252 251 251 252 252 253 252 253 251 253 255 256 255 252 240 231 234 233 235 237 238 238 238 236 245 266 277 306 322 326 333 341 349 357 2
262 256 255 253 251 251 250 249 250 249 249 252 247 243 244 245 248 246 245 248 250 242 237 232 231 230 229 231 232 233 229 233 237 248 256 270 286 301 319 339 349 357 353
263 258 255 253 249 248 246 244 245 246 247 247 245 244 244 240 241 244 243 244 243 241 240 237 234 231 230 226 228 230 229 233 237 245 250 253 275 293 314 334 342 347 348
265 256 254 253 247 245 245 244 245 246 247 247 247 245 245 245 246 241 239 236 235 237 234 233 231 229 226 226 223 226 227 235 236 237 233 235 260 278 304 331 338 337 342
268 259 251 252 252 246 244 243 244 245 245 245 244 241 238 241 239 239 239 236 234 238 238 233 226 224 223 224 223 224 226 232 231 230 220 231 248 272 297 316 319 328 334
271 265 257 250 252 249 246 244 242 242 243 243 241 238 235 240 238 238 240 239 239 240 236 227 220 220 224 220 222 221 218 213 225 225 223 228 247 264 285 300 312 327 333
267 267 263 257 251 249 247 244 242 241 241 241 238 237 238 239 238 241 242 240 239 235 229 220 218 217 219 219 218 217 208 208 212 224 232 230 242 269 277 293 310 323 328
271 264 262 260 255 250 248 246 243 240 239 238 237 238 238 236 234 236 235 235 235 228 223 218 215 214 211 213 213 212 209 210 210 211 223 238 246 260 274 289 302 315 319
264 265 262 259 257 253 249 247 245 241 238 237 237 238 238 236 235 233 231 231 228 222 217 216 214 214 211 210 211 212 210 210 211 213 220 231 240 255 270 278 289 301 308